Regional Weather Roundup
Issued by NWS

Home | Current Version | Previous Version | Graphics & Text | Print | Product List | Glossary Off
Versions: 1 2 3 4 5 6 7 8 9 10 11 12 13 14 15 16 17 18 19 20 21 22 23 24 25 26 27 28 29 30 31 32 33 34 35 36 37 38 39 40 41 42 43 44 45 46 47 48 49 50

000
ASUS43 KDTX 051410
RWRMI
MICHIGAN HOURLY REGIONAL WEATHER ROUNDUP
NATIONAL WEATHER SERVICE DETROIT/PONTIAC MI
ISSUED BY NATIONAL WEATHER SERVICE GRAND RAPIDS MI
900 AM EST MON DEC 05 2016

NOTE: "FAIR" INDICATES FEW OR NO CLOUDS BELOW 12,000 FEET WITH NO
SIGNIFICANT WEATHER AND/OR OBSTRUCTION TO VISIBILITY.

MIZ047>049-052>055-059>063-066>070-074>076-081>083-051500-
SOUTHEAST LOWER MICHIGAN

CITY           SKY/WX    TMP DP  RH WIND       PRES   REMARKS
ADRIAN         CLOUDY    35  31  85 W5        30.04R WCI  31
ALMA           CLOUDY    34  32  93 SW10      29.97R WCI  26
ANN ARBOR      CLOUDY    35  32  88 SW7       30.01R WCI  29
BAD AXE        CLOUDY    33  32  95 W13       29.93R WCI  24
DETROIT CITY   CLOUDY    37  31  78 W9        30.02R WCI  30
DETROIT        CLOUDY    37  32  82 W12       30.03R WCI  29
FLINT          CLOUDY    35  32  88 SW9       29.98R WCI  28
GROSSE ILE     CLOUDY    37  32  79 W9        30.02R WCI  31
HILLSDALE      CLOUDY    32  30  93 SW6       30.00R WCI  26
HOWELL         CLOUDY    34  32  91 SW6       29.98S WCI  29

CITY           SKY/WX    TMP DP  RH WIND       PRES   REMARKS
JACKSON        CLOUDY    34  31  88 SW9       30.00R WCI  27
LANSING        CLOUDY    35  31  85 W7        29.98R WCI  29
MASON          CLOUDY    34  33  94 SW5       29.99S WCI  30
MONROE         CLOUDY    37  33  85 W7        30.04R WCI  31
MT. CLEMENS    CLOUDY    38  32  80 W12       29.98R WCI  30
PONTIAC        MOCLDY    34  31  88 W8        29.97R WCI  27
PORT HOPE        N/A     35  32  88 W8G17     29.90R WCI  29
PORT HURON     CLOUDY    36  32  87 W6        29.99R WCI  31
TRI CITIES     CLOUDY    35  33  92 SW10      29.96R WCI  27
YPSILANTI      CLOUDY    37  32  82 W8        30.02R WCI  31
$$
MIZ043>046-050>051-056>058-064>065-071>073-077>080-051500-
SOUTHWEST LOWER MICHIGAN

CITY           SKY/WX    TMP DP  RH WIND       PRES   REMARKS
BATTLE CREEK   CLOUDY    34  33  96 SW8       30.00R WCI  27
BENTON HARBOR  CLOUDY    37  31  78 W8        30.02R WCI  31
BIG RAPIDS     CLOUDY    36  32  84 W12       29.92S WCI  28
COLDWATER      CLOUDY    34  32  92 SW7       30.01R WCI  28
HOLLAND        CLOUDY    38  32  79 W9        29.99R WCI  31
GRAND RAPIDS   MOCLDY    35  32  88 SW9       29.98R WCI  28
KALAMAZOO      CLOUDY    35  31  85 SW6       30.01R WCI  30
MARSHALL       CLOUDY    34  33  95 SW5       29.99S WCI  30
MOUNT PLEASANT CLOUDY    35  32  90 SW8       29.94R WCI  28
MUSKEGON       CLOUDY    39  31  72 W9        29.98R WCI  33
STURGIS        CLOUDY    33  31  91 SW6       30.02R WCI  28
$$
MIZ016>042-051500-
NORTHERN LOWER MICHIGAN

CITY           SKY/WX    TMP DP  RH WIND       PRES   REMARKS
ALPENA         CLOUDY    34  31  88 SW6       29.84R WCI  29
BEAVER ISLAND  CLOUDY    38  32  78 W14G24    29.81R WCI  30
BELLAIRE       CLOUDY    37  33  88 S3        29.87R
CADILLAC       CLOUDY    33  31  92 W12       29.88R WCI  24
CHARLEVOIX     CLOUDY    40  31  72 W18G24    29.86R WCI  30
GAYLORD        CLOUDY    35  30  82 W15       29.82R WCI  25
HOUGHTON LAKE  CLOUDY    34  31  88 W12       29.88R WCI  25
MANISTEE       CLOUDY    38  30  73 W18       29.93R WCI  28
OSCODA         CLOUDY    34  32  94 MISG      29.88S
PELLSTON       LGT RAIN  36  32  85 SW7       29.82R FOG     WCI  30
TRAVERSE CITY  CLOUDY    37  32  82 SW7       29.87R WCI  32
LUDINGTON      CLOUDY    38  32  80 W8        29.94S WCI  32
$$
MIZ007>008-015-051500-
EASTERN UPPER MICHIGAN

CITY           SKY/WX    TMP DP  RH WIND       PRES   REMARKS
KINROSS        CLOUDY    32  31  96 W8        29.79R WCI  25
MACKINAC ISLAN LGT SNOW  34  34 100 W10G20    29.80R WCI  26
NEWBERRY       CLOUDY    32  31  98 SW10      29.78R WCI  24
S. S. MARIE    CLOUDY    33  31  92 SW7       29.77R WCI  27
$$
MIZ004>006-011>014-085-051500-
CENTRAL UPPER MICHIGAN

CITY           SKY/WX    TMP DP  RH WIND       PRES   REMARKS
MANISTIQUE     CLOUDY    33  31  94 W3        29.81R
ESCANABA       CLOUDY    33  32  96 SW8       29.83R WCI  26
MENOMINEE      CLOUDY    33  31  92 W6        29.88  WCI  28
SAWYER-GWINN   CLEAR     28  27  93 SW6       29.77R WCI  22
$$
MIZ001>003-009>011-084-051500-
WESTERN UPPER MICHIGAN

CITY           SKY/WX    TMP DP  RH WIND       PRES   REMARKS
IRON MOUNTAIN  CLOUDY    34  27  75 W5        29.79R WCI  30
HOUGHTON       CLOUDY    35  29  78 W13       29.73R WCI  26
COPPER HARBOR    N/A     36  33  89 VRB5      29.71R WCI  32
IRONWOOD       CLOUDY    32  28  85 SW8       29.79R WCI  25
$$

ABBREVIATIONS USED IN REMARKS
   TC - TEMPERATURE IN CELSIUS
  WCI - WIND CHILL INDEX
   HX - HEAT INDEX
  VSB - VISIBILITY





USA.gov is the U.S. government's official web portal to all federal, state and local government web resources and services.